Zurück zum Katalog

FENGYUN 1C DEB

AktivSSO
NORAD 37417·DEBRIS·🇨🇳 China

Gestartet May 10, 1999 von Taiyuan Satellite Launch Center

Loading…

Nächste Überflüge (nächste 24 Stunden)

TLE

AktuellSource: Space-Track

Epoche: Sep 14, 2026, 04:49 UTC

1 37417U 99025EGK 26257.20121421  .00000381  00000-0  24417-3 0  9995
2 37417  98.8159 248.1119 0078286 204.7142 155.0268 14.07651674722257

Verfolge FENGYUN 1C DEB in Echtzeit mit AllMySat

Download on the App Store